Weather History for Hayward, WI

Change the Weather History Date:

Friday, April 11, 2014

  Actual Average Record
Temperature  
Mean Temperature 4 °C -  
Max Temperature 14 °C 13 °C 25 °C (2006)
Min Temperature -4 °C -2 °C -11 °C (1997)
Degree Days  
Heating Degree Days 25    
Moisture  
Dew Point -3 °C    
Average Humidity 63    
Maximum Humidity 93    
Minimum Humidity 28    
Precipitation  
Precipitation 0.51 mm - - ()
Sea Level Pressure  
Sea Level Pressure 1014 hPa    
Wind  
Wind Speed 3 km/h (WSW)    
Max Wind Speed 14 km/h    
Max Gust Speed 32 km/h    
Visibility 16 kilometers    
Events Rain    
Averages and records for this station are not official NWS values.
T = Trace of Precipitation, MM = Missing Value Source: NWS Daily Summary

Daily Weather History Graph

Daily Weather History Graph

Search for Another Location

Airport:

Trip Planner

Search our weather history database for the weather conditions in past years. The results will help you decide how hot, cold, wet, or windy it might be!

Date:

Astronomy

Apr. 11, 2014 Rise Set
Actual Time 6:26 AM CDT 7:47 PM CDT
Civil Twilight 5:55 AM CDT 8:18 PM CDT
Nautical Twilight 5:18 AM CDT 8:56 PM CDT
Astronomical Twilight 4:38 AM CDT 9:36 PM CDT
Moon 4:18 PM CDT (4/11) 4:33 AM CDT (4/11)
Length of Visible Light 14h 22m
Length of Day
13h 20m
Waxing Gibbous, 87% of the Moon is Illuminated
Apr 11
Waxing Gibbous
Apr 15
Full
Apr 22
Last Quarter
Apr 29
New
May 6
First Quarter

Hourly Weather History & Observations

Time (CDT) Temp. Windchill Dew Point Humidity Pressure Visibility Wind Dir Wind Speed Gust Speed Precip Events Conditions
12:53 AM -2.2 °C - -5.6 °C 78% 1013.4 hPa 16.1 km Calm Calm - N/A   Clear
1:53 AM -2.8 °C - -5.6 °C 81% 1013.7 hPa 16.1 km Calm Calm - N/A   Clear
2:53 AM -3.9 °C - -6.1 °C 85% 1014.0 hPa 16.1 km Calm Calm - N/A   Clear
3:53 AM -3.9 °C - -6.1 °C 85% 1014.2 hPa 16.1 km Calm Calm - N/A   Scattered Clouds
4:53 AM -3.9 °C - -6.1 °C 85% 1014.1 hPa 16.1 km Calm Calm - N/A   Overcast
5:53 AM -2.2 °C - -4.4 °C 85% 1014.0 hPa 16.1 km Calm Calm - N/A   Overcast
6:53 AM 2.2 °C 0.0 °C -3.9 °C 64% 1014.7 hPa 16.1 km SSW 7.4 km/h / 2.1 m/s - N/A   Overcast
7:53 AM 3.3 °C 0.8 °C 0.0 °C 79% 1015.5 hPa 16.1 km SSW 9.3 km/h / 2.6 m/s - 0.0 mm Rain Light Rain
8:53 AM 3.3 °C 2.0 °C 2.2 °C 93% 1015.5 hPa 11.3 km South 5.6 km/h / 1.5 m/s - 0.3 mm Rain Light Rain
9:53 AM 5.0 °C 2.5 °C 2.8 °C 86% 1014.9 hPa 16.1 km Variable 11.1 km/h / 3.1 m/s - 0.3 mm   Scattered Clouds
10:53 AM 7.8 °C 6.2 °C 2.8 °C 71% 1014.9 hPa 16.1 km Variable 9.3 km/h / 2.6 m/s - N/A   Clear
11:53 AM 9.4 °C - 2.2 °C 61% 1014.5 hPa 16.1 km Variable 7.4 km/h / 2.1 m/s - N/A   Clear
12:53 PM 10.6 °C - 1.7 °C 54% 1014.4 hPa 16.1 km SW 14.8 km/h / 4.1 m/s - N/A   Partly Cloudy
1:53 PM 11.7 °C - -1.1 °C 41% 1014.3 hPa 16.1 km Variable 7.4 km/h / 2.1 m/s - N/A   Mostly Cloudy
2:53 PM 11.7 °C - -2.8 °C 37% 1014.5 hPa 16.1 km North - - 0.0 mm   Mostly Cloudy
3:53 PM 13.3 °C - -5.0 °C 28% 1014.0 hPa 16.1 km WNW 13.0 km/h / 3.6 m/s 31.5 km/h / 8.7 m/s N/A   Partly Cloudy
4:53 PM 13.3 °C - -4.4 °C 29% 1013.9 hPa 16.1 km Variable 9.3 km/h / 2.6 m/s - N/A   Clear
5:53 PM 12.8 °C - -4.4 °C 30% 1013.9 hPa 16.1 km Variable 11.1 km/h / 3.1 m/s - N/A   Mostly Cloudy
6:53 PM 12.2 °C - -4.4 °C 31% 1014.0 hPa 16.1 km WNW 7.4 km/h / 2.1 m/s - N/A   Mostly Cloudy
7:53 PM 7.2 °C - -4.4 °C 44% 1014.5 hPa 16.1 km Calm Calm - N/A   Clear
8:53 PM 4.4 °C 3.2 °C -2.2 °C 63% 1015.7 hPa 16.1 km NNE 5.6 km/h / 1.5 m/s - N/A   Clear
9:53 PM 3.3 °C - -3.3 °C 62% 1016.2 hPa 16.1 km Calm Calm - N/A   Clear
10:53 PM 2.2 °C - -3.9 °C 64% 1015.8 hPa 16.1 km Calm Calm - N/A   Clear
11:53 PM 1.7 °C - -2.8 °C 72% 1015.8 hPa 16.1 km Calm Calm - N/A   Partly Cloudy